EHI
0 0 0 0 0 0 0 0 0 0 0 0 0 0 0 0 0 0 0 0 0 0 0 0 0 0 0 0 0 0 0 0 0 0 0 0 0 0 0 0 0 0 0
0 0 0 0 0 0 0 0 0 0 0 0 0 0 0 0 0 0 0 0 0 0 0 0 0 0 0 0 0 0 0 0 0 0 0 0 0 0 0 0 0 0 0
0 0 0 0 0 0 0 0 0 0 0 0 0 0 0 0 0 0 0 0 0 0 0 0 0 0 0 0 0 0 0 0 0 0 0 0 0 0 0 0 0 0 0
0 0 0 0 0 0 0 0 0 0 0 0 0 0 0 0 0 0 0 0 0 0 0 0 0 0 0 0 0 0 0 0 0 0 0 0 0 0 0 0 0 0 0
0 0 0 0 0 0 0 0 0 0 0 0 0 0 0 0 0 0 0 0 0 0 0 0 0 0 0 0 0 0 0 0 0 0 0 0 0 0 0 0 0 0 0
0 0 0 0 0 0 0 0 0 0 0 0 0 0 0 0 0 0 0 0 0 0 0 0 0 0 0 0 0 0 0 0 0 0 0 0 0 0 0 0 0 0 0
0 0 0 0 0 0 0 0 0 0 0 0 0 0 0 0 0 0 0 0 0 0 0 0 0 0 0 0 0 0 0 0 0 0 0 0 0 0 0 0 0 0 0
0 0 0 0 0 0 0 0 0 0 0 0 0 0 0 0 0 0 0 0 0 0 0 0 0 0 0 0 0 0 0 0 0 0 0 0 0 0 0 0 0 0 0
0 0 0 0 0 0 0 0 0 0 0 0 0 0 0 0 0 0 0 0 0 0 0 0 0 0 0 0 0 0 0 0 0 0 0 0 0 0 0 0 0 0 0
0 0 0 0 0 0 0 0 0 0 0 0 0 0 0 0 0 0 0 0 0 0 0 0 0 0 0 0 0 0 0 0 0 0 0 0 0 0 0 0 0 0 0
0 0 0 0 0 0 0 0 0 0 0 0 0 0 0 0 0 0 0 0 0 0 0 0 0 0 0 0 0 0 0 0 0 0 0 0 0 0 0 0 0 0 0
0 0 0 0 0 0 0 0 0 0 0 0 0 0 0 0 0 0 0 0 0 0 0 0 0 0 0 0 0 0 0 0 0 0 0 0 0 0 0 0 0 0 0
0 0 0 0 0 0 0 0 0 0 0 0 0 0 0 0 0 0 0 0 0 0 0 0 0 0 0 0 0 0 0 0 0 0 0 0 0 0 0 0 0 0 0
0 0 0 0 0 0 0 0 0 0 0 0 0 0 0 0 0 0 0 0 0 0 0 0 0 0 0 0 0 0 0 0 0 0 0 0 0 0 0 0 0 0 0
0 0 0 0 0 0 0 0 0 0 0 0 0 0 0 0 0 0 0 0 0 0 0 0 0 0 0 0 0 0 0 0 0 0 0 0 0 0 0 0 0 0 0
0 0 0 0 0 0 0 0 0 0 0 0 0 0 0 0 0 0 0 0 0 0 0 0 0 0 0 0 0 0 0 0 0 0 0 0 0 0 0 0 0 0 0
0 0 0 0 0 0 0 0 0 0 0 0 0 0 0 0 0 0 0 0 0 0 0 0 0 0 0 0 0 0 0 0 0 0 0 0 0 0 0 0 0 0 0
0 0 0 0 0 0 0 0 0 0 0 0 0 0 0 0 0 0 0 0 0 0 0 0 0 0 0 0 0 0 0 0 0 0 0 0 0 0 0 0 0 0 0
0 0 0 0 0 0 0 0 0 0 0 0 0 0 0 0 0 0 0 0 0 0 0 0 0 0 0 0 0 0 0 0 0 0 0 0 0 0 0 0 0 0 0
0 0 0 0 0 0 0 0 0 0 0 0 0 0 0 0 0 0 0 0 0 0 0 0 0 0 0 0 0 0 0 0 0 0 0 0 0 0 0 0 0 0 0
0 0 0 0 0 0 0 0 0 0 0 0 0 0 0 0 0 0 0 0 0 0 0 0 0 0 0 0 0 0 0 0 0 0 0 0 0 0 0 0 0 0 0
0 0 0 0 0 0 0 0 0 0 0 0 0 0 0 0 0 0 0 0 0 0 0 0 0 0 0 0 0 0 0 0 0 0 0 0 0 0 0 0 0 0 0
0 0 0 0 0 0 0 0 0 0 0 0 0 0 0 0 0 0 0 0 0 0 0 0 0 0 0 0 0 0 0 0 0 0 0 0 0 0 0 0 0 0 0
0 0 0 0 0 0 0 0 0 0 0 0 0 0 0 0 0 0 0 0 0 0 0 0 0 0 0 0 0 0 0 0 0 0 0 0 0 0 0 0 0 0 0
0 0 0 0 0 0 0 0 0 0 0 0 0 0 0 0 0 0 0 0 0 0 0 0 0 0 0 0 0 0 0 0 0 0 0 0 0 0 0 0 0 0 0
0 0 0 0 0 0 0 0 0 0 0 0 0 0 0 0 0 0 0 0 0 0 0 0 0 0 0 0 0 0 0 0 0 0 0 0 0 0 0 0 0 0 0
Wind_Speed
1 1 1 1 1 1 1 1 1 2 2 1 1 1 1 1 1 1 2 3 4 3 1 1 2 2 2 1 1 2 1 1 2 2 3 3 3 3 3 4 4 4 4
1 1 1 0 0 0 0 0 1 0 1 1 1 1 1 1 1 1 1 2 3 3 2 1 1 1 1 1 1 0 1 0 0 1 2 2 2 2 2 3 2 3 3
1 1 1 1 1 0 0 0 1 1 1 1 1 1 1 1 1 1 1 1 1 3 3 1 1 1 1 1 1 1 1 1 1 1 1 1 2 1 1 1 1 1 1
1 1 1 1 1 1 1 0 0 1 1 1 1 1 1 1 1 1 1 1 1 1 2 3 2 2 1 1 1 1 1 1 2 2 2 2 2 2 2 2 1 0 1
1 1 1 1 1 0 0 0 0 0 1 1 2 1 1 1 2 2 1 1 1 1 0 2 3 3 2 1 2 2 2 2 2 2 3 3 3 3 3 3 2 2 2
1 1 1 1 1 1 0 0 1 0 1 1 2 2 2 2 2 1 2 1 1 1 0 1 1 2 3 2 3 3 3 3 4 4 3 4 5 5 5 5 4 3 3
1 1 1 1 1 1 2 1 1 1 0 1 1 2 2 2 2 2 1 1 1 1 0 1 0 0 1 3 4 4 4 5 5 5 5 5 5 5 7 7 6 6 5
2 2 2 2 2 2 1 2 1 1 1 0 0 0 1 2 2 2 1 2 2 1 1 1 1 1 1 1 3 5 6 6 6 6 6 6 6 6 7 8 8 7 7
2 2 3 3 3 3 3 3 3 3 2 1 1 1 1 2 2 2 2 2 2 2 2 2 2 2 2 1 2 4 6 7 8 8 8 8 8 7 8 8 9 8 8
2 2 3 3 4 3 3 4 3 3 3 3 2 2 2 2 1 2 2 2 2 3 3 3 2 2 2 2 3 5 7 7 8 9 9 9 9 9 9 9 10 9 8
2 2 3 3 4 3 4 4 4 4 4 4 3 2 1 1 2 2 3 3 3 3 3 3 3 3 3 3 3 5 7 8 9 10 10 10 10 10 10 10 10 11 10
2 3 3 3 4 4 4 4 5 5 4 4 4 3 3 2 2 2 3 3 4 3 4 4 4 3 3 3 4 6 7 8 9 10 11 11 10 10 10 10 10 11 10
3 3 3 3 4 4 4 4 4 5 5 5 5 4 4 3 3 2 3 3 4 3 3 3 4 3 3 3 3 7 7 8 9 10 11 11 10 9 10 10 10 10 10
3 4 4 3 4 4 4 3 4 4 4 4 6 5 4 4 3 3 3 3 4 4 3 4 2 4 3 3 5 7 5 8 9 10 11 10 9 9 9 9 10 10 10
3 3 4 3 3 4 4 4 3 4 4 4 5 6 5 4 4 3 3 3 4 5 6 4 2 2 2 3 5 4 5 8 9 10 10 10 10 10 10 10 10 10 9
3 3 4 3 3 3 3 4 4 4 4 5 5 6 5 4 4 4 4 4 4 5 7 4 3 3 3 4 7 5 5 9 10 10 10 10 10 10 10 11 11 11 10
3 3 4 3 3 4 3 3 4 4 4 5 6 6 7 5 5 4 4 4 4 5 7 6 4 3 4 5 5 5 5 5 5 9 11 11 11 11 11 11 11 11 11
3 3 3 3 4 4 3 4 4 4 5 6 6 6 6 5 6 5 5 5 5 5 6 8 5 4 5 5 5 6 5 5 4 8 10 11 11 11 11 11 11 11 11
3 3 3 4 4 4 4 4 5 5 6 6 6 6 7 6 6 5 5 6 5 5 5 6 7 4 4 4 5 5 5 4 5 6 9 9 10 10 10 10 10 10 10
3 3 4 4 4 4 5 5 5 5 5 6 6 6 7 7 7 7 6 6 5 6 6 6 6 5 4 4 3 4 5 3 4 4 6 7 8 10 10 10 10 10 10
4 3 4 4 4 4 4 5 5 6 6 6 6 6 7 8 9 8 6 6 6 6 6 6 6 5 4 3 4 3 5 5 4 3 4 4 4 4 5 7 8 9 9
4 3 4 4 5 5 7 9 7 6 6 6 6 6 6 8 10 12 12 11 10 8 7 7 6 7 6 5 4 4 4 5 5 2 3 4 3 4 4 4 7 9 9
4 4 4 4 5 6 9 10 10 6 5 5 6 6 6 6 9 7 9 12 11 13 12 9 9 8 7 6 5 6 6 6 6 3 3 5 3 5 4 4 8 8 8
4 5 5 5 5 6 8 9 9 6 5 6 6 6 7 7 7 8 7 8 8 8 10 9 8 8 7 6 7 7 7 7 5 4 4 5 4 5 4 3 6 7 8
5 5 5 5 5 6 9 10 9 4 4 6 6 7 7 7 10 11 9 8 8 8 9 11 11 10 11 11 8 5 4 5 6 4 3 4 4 4 4 4 4 6 7
5 5 5 5 5 6 9 10 10 4 5 5 5 6 8 9 10 11 8 8 8 7 6 7 8 9 8 8 10 7 6 6 5 4 3 3 3 2 4 3 3 3 4
Wind_Direction
341 340 350 21 22 31 48 31 30 19 14 14 17 32 4 6 1 349 337 0 5 1 32 76 82 82 101 113 108 107 92 90 102 114 116 120 113 107 97 100 97 90 82
263 284 319 324 357 20 23 29 8 351 338 337 336 334 308 320 331 328 328 335 359 0 354 23 80 70 57 52 61 201 207 208 201 160 136 139 132 136 125 103 107 101 87
245 239 276 279 257 227 14 32 12 13 3 349 316 298 297 301 303 305 312 314 330 351 355 3 57 45 19 21 27 22 288 243 261 229 191 167 174 186 163 127 110 130 122
257 234 252 271 264 206 166 161 75 11 342 329 302 280 280 283 281 276 285 301 299 316 333 355 6 9 357 355 353 344 350 320 274 263 234 223 222 220 214 206 204 204 216
250 227 236 260 255 211 192 222 37 323 286 309 290 276 272 261 265 271 271 280 281 282 325 345 357 357 350 336 330 323 317 319 291 276 263 244 240 230 229 228 231 247 262
265 249 238 262 226 202 211 229 241 298 254 283 288 285 272 264 250 243 248 261 270 256 329 355 350 338 341 331 318 311 308 301 284 274 281 267 247 239 234 234 237 243 251
245 245 251 262 232 211 218 208 235 226 294 328 331 317 301 264 240 229 227 224 243 241 240 268 256 321 311 321 309 301 298 295 287 275 272 272 266 253 240 236 241 245 249
235 226 239 246 237 224 220 218 181 190 259 175 176 319 311 298 287 251 227 223 233 240 253 276 251 245 279 285 307 308 295 288 286 281 275 269 268 267 253 243 241 245 248
250 244 230 239 235 216 217 222 207 192 207 231 213 189 193 249 303 289 253 239 236 238 244 255 254 248 248 257 272 288 291 286 282 281 279 272 265 269 263 251 246 244 244
255 250 244 235 233 222 221 224 218 213 196 215 228 248 231 187 220 290 283 266 258 248 241 250 249 247 240 244 261 279 283 281 279 279 278 274 268 265 270 262 248 245 248
269 261 251 243 237 225 222 226 218 218 211 211 210 222 241 245 220 225 269 279 283 262 248 238 232 234 238 242 246 267 278 279 279 281 279 278 271 269 268 272 261 247 247
280 279 271 253 248 235 226 225 223 215 220 216 213 213 206 206 210 217 249 274 275 270 267 249 232 230 232 235 254 277 275 277 280 282 282 281 283 279 278 274 278 259 248
279 274 273 260 255 247 241 231 226 221 217 215 216 223 223 226 220 222 233 263 277 284 266 247 231 224 231 230 253 275 270 275 280 283 284 285 288 287 283 277 279 278 257
268 275 273 269 268 260 255 242 228 229 222 220 227 225 226 230 225 222 225 239 275 279 263 255 247 225 227 232 256 267 260 270 274 279 281 283 287 289 284 282 275 282 273
277 277 276 276 275 269 260 249 236 232 226 230 233 227 225 227 221 227 232 225 233 262 268 253 251 239 249 244 257 248 250 264 270 274 277 278 279 280 279 278 277 274 279
273 270 271 268 269 268 263 252 249 242 230 236 239 230 229 227 221 221 226 233 232 242 261 256 253 268 269 277 268 253 254 270 269 269 271 273 275 273 273 272 272 271 271
268 259 261 259 260 262 257 250 250 251 244 243 243 238 235 230 222 220 221 227 234 235 254 269 262 273 271 273 277 256 252 249 255 265 268 270 270 271 269 269 269 270 267
271 263 261 260 262 263 257 250 253 253 245 249 245 242 242 236 227 223 222 227 233 234 244 266 272 267 263 265 268 266 261 259 253 265 267 269 269 271 271 269 268 268 267
279 275 269 263 263 263 259 253 247 249 243 245 246 240 243 233 234 229 228 231 234 240 241 256 270 268 269 272 274 277 264 254 260 266 268 268 269 268 270 271 271 270 269
282 282 276 271 266 264 261 258 253 252 251 251 252 246 240 233 235 232 234 235 234 239 242 250 261 270 271 271 266 273 276 252 258 270 269 269 270 269 270 275 276 274 272
294 286 282 281 278 268 260 258 255 254 254 257 254 248 242 239 242 240 240 235 233 237 240 245 254 262 262 261 259 266 278 274 259 253 255 256 258 255 260 269 271 272 273
305 292 287 283 281 277 279 277 272 261 257 256 258 259 255 250 249 252 253 251 243 238 239 242 248 251 255 254 259 261 270 277 271 227 244 260 248 256 256 254 264 265 266
314 300 291 285 280 280 282 281 280 276 265 260 261 264 266 262 256 246 254 258 256 252 248 245 248 248 251 248 251 259 256 262 266 261 256 265 250 258 260 264 270 270 269
312 304 299 292 290 292 293 292 289 280 267 262 258 257 260 264 258 250 245 248 251 253 250 245 244 246 248 246 240 248 257 269 273 262 240 259 259 262 270 258 263 265 274
310 306 300 298 294 298 300 296 293 278 270 268 263 259 259 258 264 263 255 251 253 255 259 253 253 255 257 259 255 252 253 261 271 269 237 242 261 274 269 261 258 262 269
301 305 306 304 298 296 302 301 296 275 273 273 269 265 266 266 268 266 255 248 252 252 251 257 256 260 257 256 254 244 240 249 265 268 230 227 251 266 276 256 240 243 259